Year,Month,Day,Hour,Minute,Value (Times are PST for temperature in C)
2008,05,21,00,00,10.40
2008,05,21,00,01,10.40
2008,05,21,00,02,10.40
2008,05,21,00,03,10.40
2008,05,21,00,04,10.40
2008,05,21,00,05,10.40
2008,05,21,00,06,10.40
2008,05,21,00,07,10.40
2008,05,21,00,08,10.40
2008,05,21,00,09,10.40
2008,05,21,00,10,10.40
2008,05,21,00,11,10.40
2008,05,21,00,12,10.40
2008,05,21,01,02,10.30
2008,05,21,01,03,10.30
2008,05,21,01,04,10.30
2008,05,21,01,05,10.30
2008,05,21,01,06,10.30
2008,05,21,01,07,10.30
2008,05,21,01,08,10.30
2008,05,21,01,09,10.30
2008,05,21,01,10,10.30
2008,05,21,01,11,10.30
2008,05,21,01,12,10.30
2008,05,21,01,13,10.30
2008,05,21,01,14,10.30
2008,05,21,01,15,10.30
2008,05,21,01,16,10.30
2008,05,21,01,17,10.30
2008,05,21,01,18,10.30
2008,05,21,01,19,10.30
2008,05,21,01,20,10.30
2008,05,21,01,21,10.30
2008,05,21,01,22,10.30
2008,05,21,01,23,10.20
2008,05,21,01,24,10.20
2008,05,21,01,25,10.20
2008,05,21,01,26,10.20
2008,05,21,01,27,10.20
2008,05,21,01,28,10.20
2008,05,21,01,29,10.20
2008,05,21,01,30,10.20
2008,05,21,01,31,10.20
2008,05,21,01,32,10.20
2008,05,21,01,33,10.20
2008,05,21,01,34,10.20
2008,05,21,01,35,10.20
2008,05,21,01,36,10.20
2008,05,21,01,37,10.20
2008,05,21,01,38,10.20
2008,05,21,01,39,10.20
2008,05,21,01,40,10.20
2008,05,21,01,41,10.20
2008,05,21,01,42,10.20
2008,05,21,01,43,10.20
2008,05,21,01,44,10.20
2008,05,21,01,45,10.20
2008,05,21,01,46,10.20
2008,05,21,01,47,10.20
2008,05,21,01,48,10.20
2008,05,21,01,49,10.20
2008,05,21,01,50,10.20
2008,05,21,01,51,10.20
2008,05,21,01,52,10.20
2008,05,21,01,53,10.20
2008,05,21,01,54,10.20
2008,05,21,01,55,10.20
2008,05,21,01,56,10.20
2008,05,21,01,57,10.20
2008,05,21,01,58,10.10
2008,05,21,01,59,10.10
2008,05,21,02,00,10.10
2008,05,21,02,01,10.10
2008,05,21,02,02,10.10
2008,05,21,02,03,10.10
2008,05,21,02,04,10.10
2008,05,21,02,05,10.10
2008,05,21,02,06,10.10
2008,05,21,02,07,10.10
2008,05,21,02,08,10.20
2008,05,21,02,09,10.20
2008,05,21,02,10,10.20
2008,05,21,02,11,10.20
2008,05,21,02,12,10.20
2008,05,21,02,13,10.10
2008,05,21,02,14,10.10
2008,05,21,02,15,10.10
2008,05,21,02,16,10.10
2008,05,21,02,17,10.10
2008,05,21,02,18,10.10
2008,05,21,02,19,10.10
2008,05,21,02,20,10.10
2008,05,21,02,21,10.10
2008,05,21,02,22,10.10
2008,05,21,02,23,10.10
2008,05,21,02,24,10.10
2008,05,21,02,25,10.10
2008,05,21,02,26,10.10
2008,05,21,02,27,10.10
2008,05,21,02,28,10.10
2008,05,21,02,29,10.10
2008,05,21,02,30,10.10
2008,05,21,02,31,10.10
2008,05,21,02,32,10.00
2008,05,21,02,33,10.00
2008,05,21,02,34,10.00
2008,05,21,02,35,10.00
2008,05,21,02,36,9.90
2008,05,21,02,37,9.90
2008,05,21,02,38,9.90
2008,05,21,02,39,9.90
2008,05,21,02,40,9.90
2008,05,21,02,41,9.90
2008,05,21,02,42,9.90
2008,05,21,02,43,9.90
2008,05,21,02,44,9.90
2008,05,21,02,45,9.80
2008,05,21,02,46,9.80
2008,05,21,02,47,9.80
2008,05,21,02,48,9.80
2008,05,21,02,49,9.80
2008,05,21,02,50,9.80
2008,05,21,02,51,9.80
2008,05,21,02,52,9.80
2008,05,21,02,53,9.80
2008,05,21,02,54,9.80
2008,05,21,02,55,9.80
2008,05,21,02,56,9.80
2008,05,21,02,57,9.80
2008,05,21,02,58,9.70
2008,05,21,02,59,9.80
2008,05,21,03,00,9.80
2008,05,21,03,01,9.80
2008,05,21,03,02,9.80
2008,05,21,03,03,9.80
2008,05,21,03,04,9.80
2008,05,21,03,05,9.70
2008,05,21,03,06,9.70
2008,05,21,03,07,9.70
2008,05,21,03,08,9.70
2008,05,21,03,09,9.70
2008,05,21,03,10,9.70
2008,05,21,03,11,9.70
2008,05,21,03,12,9.70
2008,05,21,03,13,9.70
2008,05,21,03,14,9.70
2008,05,21,03,15,9.80
2008,05,21,03,16,9.80
2008,05,21,03,17,9.80
2008,05,21,03,18,9.80
2008,05,21,03,19,9.80
2008,05,21,03,20,9.80
2008,05,21,03,21,9.80
2008,05,21,03,22,9.80
2008,05,21,03,23,9.80
2008,05,21,03,24,9.90
2008,05,21,03,25,9.90
2008,05,21,03,26,9.90
2008,05,21,03,27,9.90
2008,05,21,03,28,9.90
2008,05,21,03,29,9.90
2008,05,21,03,30,9.90
2008,05,21,03,31,9.90
2008,05,21,03,32,9.90
2008,05,21,03,33,10.00
2008,05,21,03,34,10.00
2008,05,21,03,35,10.00
2008,05,21,03,36,10.00
2008,05,21,03,37,10.00
2008,05,21,03,38,10.00
2008,05,21,03,39,10.00
2008,05,21,03,40,10.00
2008,05,21,03,41,10.00
2008,05,21,03,42,10.00
2008,05,21,03,43,10.00
2008,05,21,03,44,10.00
2008,05,21,03,45,10.10
2008,05,21,03,46,10.10
2008,05,21,03,47,10.10
2008,05,21,03,48,10.10
2008,05,21,03,49,10.10
2008,05,21,03,50,10.10
2008,05,21,03,51,10.10
2008,05,21,03,52,10.10
2008,05,21,03,53,10.10
2008,05,21,03,54,10.10
2008,05,21,03,55,10.10
2008,05,21,03,56,10.20
2008,05,21,03,57,10.20
2008,05,21,03,58,10.20
2008,05,21,03,59,10.20
2008,05,21,04,00,10.20
2008,05,21,04,01,10.20
2008,05,21,04,02,10.20
2008,05,21,04,03,10.20
2008,05,21,04,04,10.20
2008,05,21,04,05,10.20
2008,05,21,04,06,10.20
2008,05,21,04,07,10.20
2008,05,21,04,08,10.20
2008,05,21,04,09,10.20
2008,05,21,04,10,10.20
2008,05,21,04,11,10.20
2008,05,21,04,12,10.20
2008,05,21,04,13,10.20
2008,05,21,04,14,10.20
2008,05,21,04,15,10.20
2008,05,21,04,16,10.20
2008,05,21,04,17,10.20
2008,05,21,04,18,10.20
2008,05,21,04,19,10.20
2008,05,21,04,20,10.20
2008,05,21,04,21,10.20
2008,05,21,04,22,10.20
2008,05,21,04,23,10.10
2008,05,21,04,24,10.10
2008,05,21,04,25,10.10
2008,05,21,04,26,10.10
2008,05,21,04,27,10.10
2008,05,21,04,28,10.10
2008,05,21,04,29,10.10
2008,05,21,04,30,10.10
2008,05,21,04,31,10.10
2008,05,21,04,32,10.00
2008,05,21,04,33,10.00
2008,05,21,04,34,10.00
2008,05,21,04,35,10.00
2008,05,21,04,36,10.00
2008,05,21,04,37,10.00
2008,05,21,04,38,9.90
2008,05,21,04,39,9.90
2008,05,21,04,40,9.90
2008,05,21,04,41,9.90
2008,05,21,04,42,9.90
2008,05,21,04,43,9.90
2008,05,21,04,44,9.90
2008,05,21,04,45,9.90
2008,05,21,04,46,9.90
2008,05,21,04,47,9.90
2008,05,21,04,48,9.90
2008,05,21,04,49,9.90
2008,05,21,04,50,9.90
2008,05,21,04,51,9.90
2008,05,21,04,52,9.90
2008,05,21,04,53,9.90
2008,05,21,04,54,9.90
2008,05,21,04,55,9.90
2008,05,21,04,56,9.90
2008,05,21,04,57,9.80
2008,05,21,04,58,9.80
2008,05,21,04,59,9.80
2008,05,21,05,00,9.80
2008,05,21,05,01,9.80
2008,05,21,05,02,9.80
2008,05,21,05,03,9.80
2008,05,21,05,04,9.80
2008,05,21,05,05,9.80
2008,05,21,05,06,9.80
2008,05,21,05,07,9.80
2008,05,21,05,08,9.80
2008,05,21,05,09,9.80
2008,05,21,05,10,9.80
2008,05,21,05,11,9.80
2008,05,21,05,12,9.80
2008,05,21,05,13,9.80
2008,05,21,05,14,9.80
2008,05,21,05,15,9.80
2008,05,21,05,16,9.80
2008,05,21,05,17,9.80
2008,05,21,05,18,9.70
2008,05,21,05,19,9.80
2008,05,21,05,20,9.70
2008,05,21,05,21,9.70
2008,05,21,05,22,9.70
2008,05,21,05,23,9.70
2008,05,21,05,24,9.70
2008,05,21,05,25,9.70
2008,05,21,05,26,9.70
2008,05,21,05,27,9.70
2008,05,21,05,28,9.70
2008,05,21,05,29,9.70
2008,05,21,05,30,9.70
2008,05,21,05,31,9.70
2008,05,21,05,32,9.70
2008,05,21,05,33,9.70
2008,05,21,05,34,9.70
2008,05,21,05,35,9.70
2008,05,21,05,36,9.70
2008,05,21,05,37,9.70
2008,05,21,05,38,9.70
2008,05,21,05,39,9.70
2008,05,21,05,40,9.70
2008,05,21,05,41,9.70
2008,05,21,05,42,9.70
2008,05,21,05,43,9.60
2008,05,21,05,44,9.60
2008,05,21,05,45,9.60
2008,05,21,05,46,9.60
2008,05,21,05,47,9.60
2008,05,21,05,48,9.60
2008,05,21,05,49,9.60
2008,05,21,05,50,9.60
2008,05,21,05,51,9.60
2008,05,21,05,52,9.60
2008,05,21,05,53,9.60
2008,05,21,05,54,9.60
2008,05,21,05,55,9.60
2008,05,21,05,56,9.60
2008,05,21,05,57,9.60
2008,05,21,05,58,9.60
2008,05,21,05,59,9.60
2008,05,21,06,00,9.60
2008,05,21,06,01,9.60
2008,05,21,06,02,9.60
2008,05,21,06,03,9.60
2008,05,21,06,04,9.60
2008,05,21,06,05,9.60
2008,05,21,06,06,9.60
2008,05,21,06,07,9.60
2008,05,21,06,08,9.60
2008,05,21,06,09,9.60
2008,05,21,06,10,9.60
2008,05,21,06,11,9.60
2008,05,21,06,12,9.60
2008,05,21,06,13,9.60
2008,05,21,06,14,9.60
2008,05,21,06,15,9.60
2008,05,21,06,16,9.60
2008,05,21,06,17,9.60
2008,05,21,06,18,9.60
2008,05,21,06,19,9.60
2008,05,21,06,20,9.60
2008,05,21,06,21,9.60
2008,05,21,06,22,9.60
2008,05,21,06,23,9.60
2008,05,21,06,24,9.60
2008,05,21,06,25,9.60
2008,05,21,06,26,9.60
2008,05,21,06,27,9.60
2008,05,21,06,28,9.60
2008,05,21,06,29,9.60
2008,05,21,06,30,9.70
2008,05,21,06,31,9.70
2008,05,21,06,32,9.70
2008,05,21,06,33,9.70
2008,05,21,06,34,9.70
2008,05,21,06,35,9.70
2008,05,21,06,36,9.70
2008,05,21,06,37,9.70
2008,05,21,06,38,9.80
2008,05,21,06,39,9.80
2008,05,21,06,40,9.80
2008,05,21,06,41,9.80
2008,05,21,06,42,9.80
2008,05,21,06,43,9.90
2008,05,21,06,44,9.90
2008,05,21,06,45,9.90
2008,05,21,06,46,9.90
2008,05,21,06,47,9.90
2008,05,21,06,48,10.00
2008,05,21,06,49,10.00
2008,05,21,06,50,10.10
2008,05,21,06,51,10.10
2008,05,21,06,52,10.10
2008,05,21,06,53,10.10
2008,05,21,06,54,10.10
2008,05,21,06,55,10.20
2008,05,21,06,56,10.20
2008,05,21,06,57,10.20
2008,05,21,06,58,10.20
2008,05,21,06,59,10.30
2008,05,21,07,00,10.30
2008,05,21,07,01,10.30
2008,05,21,07,02,10.40
2008,05,21,07,03,10.40
2008,05,21,07,04,10.40
2008,05,21,07,05,10.40
2008,05,21,07,06,10.50
2008,05,21,07,07,10.50
2008,05,21,07,08,10.60
2008,05,21,07,09,10.60
2008,05,21,07,10,10.60
2008,05,21,07,11,10.60
2008,05,21,07,12,10.60
2008,05,21,07,13,10.70
2008,05,21,07,14,10.70
2008,05,21,07,15,10.70
2008,05,21,07,16,10.70
2008,05,21,07,17,10.70
2008,05,21,07,18,10.70
2008,05,21,07,19,10.70
2008,05,21,07,20,10.70
2008,05,21,07,21,10.70
2008,05,21,07,22,10.70
2008,05,21,07,23,10.60
2008,05,21,07,24,10.60
2008,05,21,07,25,10.60
2008,05,21,07,26,10.60
2008,05,21,07,27,10.60
2008,05,21,07,28,10.60
2008,05,21,07,29,10.60
2008,05,21,07,30,10.60
2008,05,21,07,31,10.60
2008,05,21,07,32,10.60
2008,05,21,07,33,10.60
2008,05,21,07,34,10.70
2008,05,21,07,35,10.70
2008,05,21,07,36,10.70
2008,05,21,07,37,10.60
2008,05,21,07,38,10.60
2008,05,21,07,39,10.60
2008,05,21,07,40,10.60
2008,05,21,07,41,10.60
2008,05,21,07,42,10.70
2008,05,21,07,43,10.70
2008,05,21,07,44,10.70
2008,05,21,07,45,10.70
2008,05,21,07,46,10.70
2008,05,21,07,47,10.70
2008,05,21,07,48,10.80
2008,05,21,07,49,10.80
2008,05,21,07,50,10.80
2008,05,21,07,51,10.80
2008,05,21,07,52,10.80
2008,05,21,07,53,10.80
2008,05,21,07,54,10.80
2008,05,21,07,55,10.90
2008,05,21,07,56,10.90
2008,05,21,07,57,10.90
2008,05,21,07,58,10.90
2008,05,21,07,59,10.90
2008,05,21,08,00,11.00
2008,05,21,08,01,11.00
2008,05,21,08,02,11.00
2008,05,21,08,03,11.00
2008,05,21,08,04,11.00
2008,05,21,08,05,11.00
2008,05,21,08,06,11.00
2008,05,21,08,07,11.00
2008,05,21,08,08,10.90
2008,05,21,08,09,10.90
2008,05,21,08,10,10.90
2008,05,21,08,11,10.90
2008,05,21,08,12,10.80
2008,05,21,08,13,10.80
2008,05,21,08,14,10.80
2008,05,21,08,15,10.80
2008,05,21,08,16,10.80
2008,05,21,08,17,10.80
2008,05,21,08,18,10.80
2008,05,21,08,19,10.80
2008,05,21,08,20,10.70
2008,05,21,08,21,10.70
2008,05,21,08,22,10.70
2008,05,21,08,23,10.70
2008,05,21,08,24,10.70
2008,05,21,08,25,10.80
2008,05,21,08,26,10.80
2008,05,21,08,27,10.80
2008,05,21,08,28,10.80
2008,05,21,08,29,10.80
2008,05,21,08,30,10.80
2008,05,21,08,31,10.80
2008,05,21,08,32,10.80
2008,05,21,08,33,10.80
2008,05,21,08,34,10.80
2008,05,21,08,35,10.80
2008,05,21,08,36,10.80
2008,05,21,08,37,10.80
2008,05,21,08,38,10.80
2008,05,21,08,39,10.80
2008,05,21,08,40,10.80
2008,05,21,08,41,10.80
2008,05,21,08,42,10.90
2008,05,21,08,43,10.90
2008,05,21,08,44,10.90
2008,05,21,08,45,10.90
2008,05,21,08,46,10.90
2008,05,21,08,47,11.00
2008,05,21,08,48,11.00
2008,05,21,08,49,11.10
2008,05,21,08,50,11.10
2008,05,21,08,51,11.10
2008,05,21,08,52,11.20
2008,05,21,08,53,11.20
2008,05,21,08,54,11.20
2008,05,21,08,55,11.20
2008,05,21,08,56,11.30
2008,05,21,08,57,11.30
2008,05,21,08,58,11.30
2008,05,21,08,59,11.30
2008,05,21,09,00,11.30
2008,05,21,09,01,11.30
2008,05,21,09,02,11.40
2008,05,21,09,03,11.40
2008,05,21,09,04,11.40
2008,05,21,09,05,11.40
2008,05,21,09,06,11.50
2008,05,21,09,07,11.50
2008,05,21,09,08,11.50
2008,05,21,09,09,11.60
2008,05,21,09,10,11.60
2008,05,21,09,11,11.60
2008,05,21,09,12,11.60
2008,05,21,09,13,11.60
2008,05,21,09,14,11.60
2008,05,21,09,15,11.60
2008,05,21,09,16,11.60
2008,05,21,09,17,11.60
2008,05,21,09,18,11.60
2008,05,21,09,19,11.60
2008,05,21,09,20,11.70
2008,05,21,09,21,11.70
2008,05,21,09,22,11.70
2008,05,21,09,23,11.70
2008,05,21,09,24,11.70
2008,05,21,09,25,11.70
2008,05,21,09,26,11.80
2008,05,21,09,27,11.80
2008,05,21,09,28,11.80
2008,05,21,09,29,11.90
2008,05,21,09,30,11.90
2008,05,21,09,31,12.00
2008,05,21,09,32,12.00
2008,05,21,09,33,12.10
2008,05,21,09,34,12.10
2008,05,21,09,35,12.10
2008,05,21,09,36,12.20
2008,05,21,09,37,12.20
2008,05,21,09,38,12.20
2008,05,21,09,39,12.20
2008,05,21,09,40,12.30
2008,05,21,09,41,12.30
2008,05,21,09,42,12.30
2008,05,21,09,43,12.30
2008,05,21,09,44,12.30
2008,05,21,09,45,12.20
2008,05,21,09,46,12.20
2008,05,21,09,47,12.20
2008,05,21,09,48,12.30
2008,05,21,09,49,12.30
2008,05,21,09,50,12.30
2008,05,21,09,51,12.30
2008,05,21,09,52,12.40
2008,05,21,09,53,12.40
2008,05,21,09,54,12.40
2008,05,21,09,55,12.40
2008,05,21,09,56,12.40
2008,05,21,09,57,12.50
2008,05,21,09,58,12.50
2008,05,21,09,59,12.60
2008,05,21,10,00,12.60
2008,05,21,10,01,12.60
2008,05,21,10,02,12.60
2008,05,21,10,03,12.60
2008,05,21,10,04,12.70
2008,05,21,10,05,12.60
2008,05,21,10,06,12.60
2008,05,21,10,07,12.60
2008,05,21,10,08,12.60
2008,05,21,10,09,12.60
2008,05,21,10,10,12.60
2008,05,21,10,11,12.60
2008,05,21,10,12,12.60
2008,05,21,10,13,12.60
2008,05,21,10,14,12.60
2008,05,21,10,15,12.60
2008,05,21,10,16,12.60
2008,05,21,10,17,12.60
2008,05,21,10,18,12.60
2008,05,21,10,19,12.60
2008,05,21,10,20,12.60
2008,05,21,10,21,12.60
2008,05,21,10,22,12.60
2008,05,21,10,23,12.60
2008,05,21,10,24,12.60
2008,05,21,10,25,12.60
2008,05,21,10,26,12.60
2008,05,21,10,27,12.70
2008,05,21,10,28,12.70
2008,05,21,10,29,12.80
2008,05,21,10,30,12.80
2008,05,21,10,31,12.80
2008,05,21,10,32,12.90
2008,05,21,10,33,12.90
2008,05,21,10,34,13.00
2008,05,21,10,35,13.10
2008,05,21,10,36,13.10
2008,05,21,10,37,13.20
2008,05,21,10,38,13.20
2008,05,21,10,39,13.20
2008,05,21,10,40,13.20
2008,05,21,10,41,13.20
2008,05,21,10,42,13.20
2008,05,21,10,43,13.20
2008,05,21,10,44,13.30
2008,05,21,10,45,13.30
2008,05,21,10,46,13.30
2008,05,21,10,47,13.30
2008,05,21,10,48,13.30
2008,05,21,10,49,13.30
2008,05,21,10,50,13.40
2008,05,21,10,51,13.40
2008,05,21,10,52,13.50
2008,05,21,10,53,13.50
2008,05,21,10,54,13.60
2008,05,21,10,55,13.70
2008,05,21,10,56,13.70
2008,05,21,10,57,13.80
2008,05,21,10,58,13.80
2008,05,21,10,59,13.80
2008,05,21,11,00,13.80
2008,05,21,11,01,13.80
2008,05,21,11,02,13.80
2008,05,21,11,03,13.80
2008,05,21,11,04,13.80
2008,05,21,11,05,13.80
2008,05,21,11,06,13.90
2008,05,21,11,07,13.90
2008,05,21,11,08,13.90
2008,05,21,11,09,14.00
2008,05,21,11,10,14.00
2008,05,21,11,11,14.00
2008,05,21,11,12,13.90
2008,05,21,11,13,13.90
2008,05,21,11,14,13.90
2008,05,21,11,15,13.90
2008,05,21,11,16,13.90
2008,05,21,11,17,13.90
2008,05,21,11,18,14.00
2008,05,21,11,19,14.10
2008,05,21,11,20,14.20
2008,05,21,11,21,14.20
2008,05,21,11,22,14.30
2008,05,21,11,23,14.40
2008,05,21,11,24,14.50
2008,05,21,11,25,14.60
2008,05,21,11,26,14.60
2008,05,21,11,27,14.60
2008,05,21,11,28,14.60
2008,05,21,11,29,14.60
2008,05,21,11,30,14.60
2008,05,21,11,31,14.60
2008,05,21,11,32,14.60
2008,05,21,11,33,14.70
2008,05,21,11,34,14.70
2008,05,21,11,35,14.80
2008,05,21,11,36,14.80
2008,05,21,11,37,14.80
2008,05,21,11,38,14.80
2008,05,21,11,39,14.80
2008,05,21,11,40,14.80
2008,05,21,11,41,14.80
2008,05,21,11,42,14.90
2008,05,21,11,43,14.80
2008,05,21,11,44,14.80
2008,05,21,11,45,14.80
2008,05,21,11,46,14.80
2008,05,21,11,47,14.80
2008,05,21,11,48,14.90
2008,05,21,11,49,14.90
2008,05,21,11,50,15.00
2008,05,21,11,51,15.00
2008,05,21,11,52,15.00
2008,05,21,11,53,15.00
2008,05,21,11,54,15.00
2008,05,21,11,55,15.00
2008,05,21,11,56,15.00
2008,05,21,11,57,15.00
2008,05,21,11,58,14.90
2008,05,21,11,59,15.00
2008,05,21,12,00,15.00
2008,05,21,12,01,15.00
2008,05,21,12,02,15.00
2008,05,21,12,03,15.00
2008,05,21,12,04,15.00
2008,05,21,12,05,15.00
2008,05,21,12,06,15.10
2008,05,21,12,07,15.20
2008,05,21,12,08,15.30
2008,05,21,12,09,15.30
2008,05,21,12,10,15.20
2008,05,21,12,11,15.20
2008,05,21,12,12,15.20
2008,05,21,12,13,15.20
2008,05,21,12,14,15.20
2008,05,21,12,15,15.20
2008,05,21,12,16,15.30
2008,05,21,12,17,15.30
2008,05,21,12,18,15.30
2008,05,21,12,19,15.30
2008,05,21,12,20,15.30
2008,05,21,12,21,15.30
2008,05,21,12,22,15.40
2008,05,21,12,23,15.50
2008,05,21,12,24,15.60
2008,05,21,12,25,15.60
2008,05,21,12,26,15.70
2008,05,21,12,27,15.70
2008,05,21,12,28,15.70
2008,05,21,12,29,15.70
2008,05,21,12,30,15.70
2008,05,21,12,31,15.70
2008,05,21,12,32,15.70
2008,05,21,12,33,15.70
2008,05,21,12,34,15.70
2008,05,21,12,35,15.70
2008,05,21,12,36,15.70
2008,05,21,12,37,15.70
2008,05,21,12,38,15.60
2008,05,21,12,39,15.60
2008,05,21,12,40,15.70
2008,05,21,12,41,15.70
2008,05,21,12,42,15.70
2008,05,21,12,43,15.70
2008,05,21,12,44,15.70
2008,05,21,12,45,15.70
2008,05,21,12,46,15.80
2008,05,21,12,47,15.80
2008,05,21,12,48,15.90
2008,05,21,12,49,15.90
2008,05,21,12,50,15.90
2008,05,21,12,51,15.90
2008,05,21,12,52,15.90
2008,05,21,12,53,15.90
2008,05,21,12,54,15.90
2008,05,21,12,55,15.90
2008,05,21,12,56,15.90
2008,05,21,12,57,15.80
2008,05,21,12,58,15.80
2008,05,21,12,59,15.80
2008,05,21,13,00,15.70
2008,05,21,13,01,15.70
2008,05,21,13,02,15.70
2008,05,21,13,03,15.70
2008,05,21,13,04,15.70
2008,05,21,13,05,15.70
2008,05,21,13,06,15.70
2008,05,21,13,07,15.80
2008,05,21,13,08,15.80
2008,05,21,13,09,16.00
2008,05,21,13,10,16.00
2008,05,21,13,11,16.10
2008,05,21,13,12,16.30
2008,05,21,13,13,16.40
2008,05,21,13,14,16.50
2008,05,21,13,15,16.50
2008,05,21,13,16,16.60
2008,05,21,13,17,16.70
2008,05,21,13,18,16.80
2008,05,21,13,19,16.80
2008,05,21,13,20,16.80
2008,05,21,13,21,16.80
2008,05,21,13,22,16.90
2008,05,21,13,23,17.00
2008,05,21,13,24,17.10
2008,05,21,13,25,17.10
2008,05,21,13,26,17.10
2008,05,21,13,27,17.10
2008,05,21,13,28,17.00
2008,05,21,13,29,16.90
2008,05,21,13,30,16.80
2008,05,21,13,31,16.70
2008,05,21,13,32,16.60
2008,05,21,13,33,16.50
2008,05,21,13,34,16.50
2008,05,21,13,35,16.50
2008,05,21,13,36,16.50
2008,05,21,13,37,16.50
2008,05,21,13,38,16.40
2008,05,21,13,39,16.40
2008,05,21,13,40,16.30
2008,05,21,13,41,16.20
2008,05,21,13,42,16.10
2008,05,21,13,43,16.10
2008,05,21,13,44,16.10
2008,05,21,13,45,16.10
2008,05,21,13,46,16.20
2008,05,21,13,47,16.20
2008,05,21,13,48,16.30
2008,05,21,13,49,16.30
2008,05,21,13,50,16.30
2008,05,21,13,51,16.30
2008,05,21,13,52,16.30
2008,05,21,13,53,16.30
2008,05,21,13,54,16.40
2008,05,21,13,55,16.50
2008,05,21,13,56,16.50
2008,05,21,13,57,16.60
2008,05,21,13,58,16.60
2008,05,21,13,59,16.60
2008,05,21,14,00,16.70
2008,05,21,14,01,16.70
2008,05,21,14,02,16.70
2008,05,21,14,03,16.70
2008,05,21,14,04,16.70
2008,05,21,14,05,16.70
2008,05,21,14,06,16.60
2008,05,21,14,07,16.60
2008,05,21,14,08,16.60
2008,05,21,14,09,16.50
2008,05,21,14,10,16.40
2008,05,21,14,11,16.40
2008,05,21,14,12,16.40
2008,05,21,14,13,16.40
2008,05,21,14,14,16.30
2008,05,21,14,15,16.30
2008,05,21,14,16,16.30
2008,05,21,14,17,16.30
2008,05,21,14,18,16.30
2008,05,21,14,19,16.30
2008,05,21,14,20,16.30
2008,05,21,14,21,16.40
2008,05,21,14,22,16.50
2008,05,21,14,23,16.60
2008,05,21,14,24,16.70
2008,05,21,14,25,16.80
2008,05,21,14,26,16.80
2008,05,21,14,27,16.80
2008,05,21,14,28,16.70
2008,05,21,14,29,16.60
2008,05,21,14,30,16.60
2008,05,21,14,31,16.60
2008,05,21,14,32,16.50
2008,05,21,14,33,16.60
2008,05,21,14,34,16.50
2008,05,21,14,35,16.40
2008,05,21,14,36,16.50
2008,05,21,14,37,16.50
2008,05,21,14,38,16.50
2008,05,21,14,39,16.50
2008,05,21,14,40,16.60
2008,05,21,14,41,16.60
2008,05,21,14,42,16.60
2008,05,21,14,43,16.60
2008,05,21,14,44,16.60
2008,05,21,14,45,16.60
2008,05,21,14,46,16.60
2008,05,21,14,47,16.60
2008,05,21,14,48,16.50
2008,05,21,14,49,16.50
2008,05,21,14,50,16.50
2008,05,21,14,51,16.50
2008,05,21,14,52,16.40
2008,05,21,14,53,16.30
2008,05,21,14,54,16.30
2008,05,21,14,55,16.30
2008,05,21,14,56,16.40
2008,05,21,14,57,16.30
2008,05,21,14,58,16.40
2008,05,21,14,59,16.40
2008,05,21,15,00,16.50
2008,05,21,15,01,16.50
2008,05,21,15,02,16.60
2008,05,21,15,03,16.70
2008,05,21,15,04,16.70
2008,05,21,15,05,16.70
2008,05,21,15,06,16.80
2008,05,21,15,07,16.80
2008,05,21,15,08,16.90
2008,05,21,15,09,17.00
2008,05,21,15,10,17.00
2008,05,21,15,11,16.90
2008,05,21,15,12,16.80
2008,05,21,15,13,16.80
2008,05,21,15,14,16.60
2008,05,21,15,15,16.50
2008,05,21,15,16,16.30
2008,05,21,15,17,16.10
2008,05,21,15,18,15.90
2008,05,21,15,19,15.80
2008,05,21,15,20,15.70
2008,05,21,15,21,15.70
2008,05,21,15,22,15.70
2008,05,21,15,23,15.70
2008,05,21,15,24,15.80
2008,05,21,15,25,15.80
2008,05,21,15,26,15.90
2008,05,21,15,27,16.00
2008,05,21,15,28,16.10
2008,05,21,15,29,16.10
2008,05,21,15,30,16.20
2008,05,21,15,31,16.20
2008,05,21,15,32,16.30
2008,05,21,15,33,16.40
2008,05,21,15,34,16.40
2008,05,21,15,35,16.40
2008,05,21,15,36,16.50
2008,05,21,15,37,16.40
2008,05,21,15,38,16.50
2008,05,21,15,39,16.60
2008,05,21,15,40,16.60
2008,05,21,15,41,16.60
2008,05,21,15,42,16.60
2008,05,21,15,43,16.50
2008,05,21,15,44,16.50
2008,05,21,15,45,16.50
2008,05,21,15,46,16.50
2008,05,21,15,47,16.50
2008,05,21,15,48,16.40
2008,05,21,15,49,16.50
2008,05,21,15,50,16.60
2008,05,21,15,51,16.60
2008,05,21,15,52,16.70
2008,05,21,15,53,16.70
2008,05,21,15,54,16.80
2008,05,21,15,55,16.80
2008,05,21,15,56,16.80
2008,05,21,15,57,16.80
2008,05,21,15,58,16.80
2008,05,21,15,59,16.80
2008,05,21,16,00,16.80
2008,05,21,16,01,16.80
2008,05,21,16,02,16.80
2008,05,21,16,03,16.80
2008,05,21,16,04,16.80
2008,05,21,16,05,16.80
2008,05,21,16,06,16.70
2008,05,21,16,07,16.70
2008,05,21,16,08,16.60
2008,05,21,16,09,16.50
2008,05,21,16,10,16.40
2008,05,21,16,11,16.30
2008,05,21,16,12,16.30
2008,05,21,16,13,16.30
2008,05,21,16,14,16.30
2008,05,21,16,15,16.30
2008,05,21,16,16,16.30
2008,05,21,16,17,16.40
2008,05,21,16,18,16.40
2008,05,21,16,19,16.40
2008,05,21,16,20,16.40
2008,05,21,16,21,16.30
2008,05,21,16,22,16.30
2008,05,21,16,23,16.30
2008,05,21,16,24,16.20
2008,05,21,16,25,16.10
2008,05,21,16,26,16.10
2008,05,21,16,27,16.00
2008,05,21,16,28,16.00
2008,05,21,16,29,15.90
2008,05,21,16,30,15.90
2008,05,21,16,31,15.80
2008,05,21,16,32,15.80
2008,05,21,16,33,15.80
2008,05,21,16,34,15.70
2008,05,21,16,35,15.70
2008,05,21,16,36,15.70
2008,05,21,16,37,15.70
2008,05,21,16,38,15.80
2008,05,21,16,39,15.80
2008,05,21,16,40,15.80
2008,05,21,16,41,15.80
2008,05,21,16,42,15.80
2008,05,21,16,43,15.80
2008,05,21,16,44,15.70
2008,05,21,16,45,15.70
2008,05,21,16,46,15.70
2008,05,21,16,47,15.70
2008,05,21,16,48,15.70
2008,05,21,16,49,15.70
2008,05,21,16,50,15.70
2008,05,21,16,51,15.70
2008,05,21,16,52,15.80
2008,05,21,16,53,15.80
2008,05,21,16,54,15.80
2008,05,21,16,55,15.90
2008,05,21,16,56,15.90
2008,05,21,16,57,16.00
2008,05,21,16,58,16.10
2008,05,21,16,59,16.10
2008,05,21,17,00,16.20
2008,05,21,17,01,16.30
2008,05,21,17,02,16.30
2008,05,21,17,03,16.40
2008,05,21,17,04,16.50
2008,05,21,17,05,16.60
2008,05,21,17,06,16.60
2008,05,21,17,07,16.70
2008,05,21,17,08,16.70
2008,05,21,17,09,16.70
2008,05,21,17,10,16.70
2008,05,21,17,11,16.80
2008,05,21,17,12,16.80
2008,05,21,17,13,16.80
2008,05,21,17,14,16.70
2008,05,21,17,15,16.70
2008,05,21,17,16,16.60
2008,05,21,17,17,16.60
2008,05,21,17,18,16.60
2008,05,21,17,19,16.60
2008,05,21,17,20,16.50
2008,05,21,17,21,16.50
2008,05,21,17,22,16.50
2008,05,21,17,23,16.40
2008,05,21,17,24,16.40
2008,05,21,17,25,16.30
2008,05,21,17,26,16.30
2008,05,21,17,27,16.30
2008,05,21,17,28,16.30
2008,05,21,17,29,16.30
2008,05,21,17,30,16.30
2008,05,21,17,31,16.30
2008,05,21,17,32,16.30
2008,05,21,17,33,16.40
2008,05,21,17,34,16.40
2008,05,21,17,35,16.30
2008,05,21,17,36,16.20
2008,05,21,17,37,16.10
2008,05,21,17,38,16.20
2008,05,21,17,39,16.10
2008,05,21,17,40,16.10
2008,05,21,17,41,16.20
2008,05,21,17,42,16.20
2008,05,21,17,43,16.20
2008,05,21,17,44,16.30
2008,05,21,17,45,16.20
2008,05,21,17,46,16.20
2008,05,21,17,47,16.20
2008,05,21,17,48,16.20
2008,05,21,17,49,16.10
2008,05,21,17,50,16.10
2008,05,21,17,51,16.10
2008,05,21,17,52,16.10
2008,05,21,17,53,16.10
2008,05,21,17,54,16.10
2008,05,21,17,55,16.20
2008,05,21,17,56,16.30
2008,05,21,17,57,16.30
2008,05,21,17,58,16.30
2008,05,21,17,59,16.30
2008,05,21,18,00,16.30
2008,05,21,18,01,16.40
2008,05,21,18,02,16.40
2008,05,21,18,03,16.40
2008,05,21,18,04,16.40
2008,05,21,18,05,16.50
2008,05,21,18,06,16.50
2008,05,21,18,07,16.60
2008,05,21,18,08,16.60
2008,05,21,18,09,16.70
2008,05,21,18,10,16.70
2008,05,21,18,11,16.60
2008,05,21,18,12,16.60
2008,05,21,18,13,16.50
2008,05,21,18,14,16.40
2008,05,21,18,15,16.40
2008,05,21,18,16,16.30